Content
SEND FEEDBACK

Daily
Averages
Monthly
Summary
United States of America

GENE AUTRY, OKLAHOMA


Home > North America > United States > Oklahoma
Elevation: 850 feet     Latitude: 34 12N     Longitude: 097 09W

WEATHER
 
SELECT A DAY
Number of Records: 732,494;   Date Range: 5/11/98 - 7/27/14
 
SHARE

PRINT THIS DATA

[ ← Previous Day ]
WEATHER ALMANAC - JANUARY 31, 2013
[ Next Day → ]
[ °C ]   °F
Weather ElementAverageHighLow
Temperature44.3 °F64.4 °F (1:35 pm)26.6 °F (6:35 am)
Dewpoint23.4 °F30.2 °F (8:55 am)17.6 °F (10:55 am)
Humidity51.7 %93 % (7:55 am)18 % (12:55 pm)
Barometer30.16 in30.39 in (11:35 pm)30.06 in (2:55 pm)
Wind Speed6.5 mph20.7 mph (8:15 pm)
Wind Gust27.6 mph (8:35 pm)
Weather ElementAverage
Visibility10 mi
Wind DirectionESE (113.7 °)

Weather ElementTotal
Precipitation---
Heating Degree Days19.5 (Base 65)
Averaged from 68 records on January 31, 2013
WEATHER CONDITIONS BREAKOUT
WIND DIRECTION BREAKOUT
WEATHER BY HOUR - JANUARY 31, 2013
[ °C ]   °F
Local TimeTemperatureDewpointHumidityBarometerVisibilityWind DirectionWind SpeedGust SpeedPrecipitationEventsConditions
12:35 AM33.8 °F21.2 °F60 %30.10 in10.0 miCalmClear
12:55 AM32.0 °F23.0 °F69 %30.10 in10.0 miCalmClear
1:15 AM32.0 °F23.0 °F69 %30.10 in10.0 miCalmClear
1:35 AM30.2 °F23.0 °F75 %30.10 in10.0 miCalmClear
1:55 AM28.4 °F23.0 °F80 %30.09 in10.0 miCalmClear
2:15 AM30.2 °F23.0 °F75 %30.08 in10.0 miCalmClear
2:35 AM30.2 °F23.0 °F75 %30.08 in10.0 miCalmClear
2:55 AM28.4 °F23.0 °F80 %30.08 in10.0 miCalmClear
3:15 AM32.0 °F21.2 °F64 %30.08 in10.0 miCalmClear
3:35 AM28.4 °F23.0 °F80 %30.08 in10.0 miCalmClear
3:55 AM32.0 °F23.0 °F69 %30.09 in10.0 miCalmClear
4:15 AM32.0 °F23.0 °F69 %30.09 in10.0 miCalmClear
4:35 AM30.2 °F23.0 °F75 %30.08 in10.0 miCalmClear
4:55 AM30.2 °F23.0 °F75 %30.09 in10.0 miCalmClear
5:15 AM28.4 °F24.8 °F86 %30.09 in10.0 miCalmClear
5:35 AM28.4 °F24.8 °F86 %30.09 in10.0 miCalmClear
6:15 AM28.4 °F23.0 °F80 %30.11 in10.0 miCalmClear
6:35 AM26.6 °F23.0 °F86 %30.11 in10.0 miCalmClear
6:55 AM26.6 °F23.0 °F86 %30.11 in10.0 miCalmClear
7:15 AM26.6 °F23.0 °F86 %30.11 in10.0 miCalmClear
7:55 AM28.4 °F26.6 °F93 %30.12 in10.0 miCalmClear
8:15 AM32.0 °F28.4 °F87 %30.12 in10.0 miCalmClear
8:35 AM32.0 °F28.4 °F87 %30.11 in10.0 miCalmClear
8:55 AM33.8 °F30.2 °F87 %30.12 in10.0 miCalmClear
9:15 AM39.2 °F30.2 °F70 %30.12 in10.0 miCalmClear
9:35 AM42.8 °F28.4 °F57 %30.12 in10.0 miSW (220°)3.5 mphClear
9:55 AM46.4 °F23.0 °F40 %30.13 in10.0 miWSW (240°)4.6 mphClear
10:15 AM51.8 °F23.0 °F33 %30.13 in10.0 miWest (260°)5.8 mphClear
10:35 AM53.6 °F19.4 °F26 %30.14 in10.0 miWSW (240°)5.8 mphClear
10:55 AM55.4 °F17.6 °F23 %30.14 in10.0 miWSW (240°)6.9 mphClear
11:15 AM57.2 °F21.2 °F25 %30.13 in10.0 miSW (230°)8.1 mphClear
11:35 AM59.0 °F19.4 °F22 %30.12 in10.0 miWSW (240°)8.1 mphClear
11:55 AM60.8 °F17.6 °F19 %30.12 in10.0 miWSW (240°)9.2 mphClear
12:15 PM60.8 °F19.4 °F20 %30.11 in10.0 miWest (260°)11.5 mph16.1 mphClear
12:35 PM62.6 °F19.4 °F19 %30.11 in10.0 miWSW (250°)10.4 mphClear
12:55 PM62.6 °F17.6 °F18 %30.10 in10.0 miWest (280°)9.2 mph17.3 mphClear
1:15 PM62.6 °F19.4 °F19 %30.10 in10.0 miWest (260°)10.4 mph16.1 mphClear
1:35 PM64.4 °F19.4 °F18 %30.09 in10.0 miWest (260°)11.5 mphClear
1:55 PM62.6 °F19.4 °F19 %30.07 in10.0 miWSW (250°)8.1 mph18.4 mphClear
2:15 PM62.6 °F21.2 °F20 %30.07 in10.0 miWest (260°)12.7 mph16.1 mphClear
2:35 PM62.6 °F21.2 °F20 %30.07 in10.0 miWSW (250°)10.4 mph18.4 mphClear
2:55 PM62.6 °F21.2 °F20 %30.06 in10.0 miWest (260°)10.4 mph16.1 mphClear
3:15 PM62.6 °F21.2 °F20 %30.07 in10.0 miWest (270°)11.5 mph16.1 mphClear
3:35 PM62.6 °F21.2 °F20 %30.07 in10.0 miWest (280°)10.4 mphClear
3:55 PM62.6 °F23.0 °F22 %30.08 in10.0 miWSW (250°)8.1 mphClear
4:15 PM62.6 °F21.2 °F20 %30.10 in10.0 miWNW (290°)6.9 mphClear
4:35 PM62.6 °F21.2 °F20 %30.12 in10.0 miWNW (300°)5.8 mphClear
4:55 PM60.8 °F21.2 °F22 %30.13 in10.0 miWNW (300°)6.9 mphClear
5:15 PM60.8 °F23.0 °F23 %30.14 in10.0 miNNW (330°)5.8 mphClear
5:35 PM59.0 °F23.0 °F25 %30.16 in10.0 miNNW (330°)3.5 mphClear
5:55 PM57.2 °F23.0 °F27 %30.18 in10.0 miCalmClear
6:15 PM55.4 °F23.0 °F29 %30.19 in10.0 miCalmClear
6:35 PM55.4 °F24.8 °F31 %30.20 in10.0 miNNW (340°)9.2 mphClear
6:55 PM53.6 °F26.6 °F35 %30.23 in10.0 miNNE (30°)13.8 mph19.6 mphClear
7:15 PM51.8 °F28.4 °F41 %30.25 in10.0 miNE (50°)18.4 mph25.3 mphClear
7:35 PM46.4 °F30.2 °F53 %30.26 in10.0 miNE (50°)18.4 mph25.3 mphClear
7:55 PM44.6 °F30.2 °F57 %30.28 in10.0 miENE (60°)15.0 mph26.5 mphClear
8:15 PM42.8 °F28.4 °F57 %30.30 in10.0 miNE (50°)20.7 mph26.5 mphClear
8:35 PM42.8 °F28.4 °F57 %30.32 in10.0 miENE (60°)19.6 mph27.6 mphClear
8:55 PM41.0 °F28.4 °F61 %30.33 in10.0 miENE (60°)17.3 mph25.3 mphClear
9:15 PM39.2 °F28.4 °F65 %30.34 in10.0 miENE (60°)13.8 mph17.3 mphClear
9:35 PM37.4 °F26.6 °F65 %30.34 in10.0 miENE (60°)15.0 mph24.2 mphClear
10:15 PM35.6 °F26.6 °F70 %30.38 in10.0 miNE (50°)11.5 mph20.7 mphClear
10:35 PM33.8 °F26.6 °F75 %30.37 in10.0 miNE (50°)11.5 mph18.4 mphClear
10:55 PM33.8 °F24.8 °F70 %30.37 in10.0 miENE (60°)13.8 mph20.7 mphClear
11:15 PM32.0 °F23.0 °F69 %30.37 in10.0 miNE (50°)10.4 mph17.3 mphClear
11:35 PM32.0 °F19.4 °F60 %30.39 in10.0 miENE (60°)13.8 mphClear
11:55 PM32.0 °F17.6 °F55 %30.37 in10.0 miNE (50°)11.5 mphClear
Hourly data recorded from K1F0, located miles away from Gene Autry, Oklahoma







STORIES FROM OUR PARTNERS